Middlebury State AP, Middlebu, VT

3:34 AM EDT on May 01, 2017 (GMT -0400)
Middlebury State AP, Middlebu

Weather History for K6B0 - March, 2014

Change the Weather History Date:

Wednesday, March 5, 2014

  Actual Average (KRUT) Record (KRUT)
Temperature  
Mean Temperature 10 °F -  
Max Temperature 20 °F 39 °F 67 °F (1976)
Min Temperature 0 °F 21 °F 0 °F (2015)
Degree Days  
Heating Degree Days 55    
Moisture  
Dew Point 8 °F    
Average Humidity 82    
Maximum Humidity 98    
Minimum Humidity 59    
Precipitation  
Precipitation 0.00 in - - ()
Sea Level Pressure  
Sea Level Pressure 30.36 in    
Wind  
Wind Speed 3 mph (WNW)    
Max Wind Speed 13 mph    
Max Gust Speed 21 mph    
Visibility 7 miles    
Events Snow    
Averages and records for this station are not official NWS values.
T = Trace of Precipitation, MM = Missing Value Source: NWS Daily Summary

Daily Weather History Graph

Daily Weather History Graph

Search for Another Location

Airport or City:

Trip Planner

Search our weather history database for the weather conditions in past years. The results will help you decide how hot, cold, wet, or windy it might be!

Date:

Astronomy

Mar. 05, 2014 Rise Set
Actual Time 6:22 AM EST 5:45 PM EST
Civil Twilight 5:53 AM EST 6:14 PM EST
Nautical Twilight 5:20 AM EST 6:48 PM EST
Astronomical Twilight 4:46 AM EST 7:21 PM EST
Moon 8:36 AM EST (3/5) 11:03 PM EST (3/5)
Length of Visible Light 12h 21m
Length of Day
11h 23m
Waxing Crescent, 23% of the Moon is Illuminated
Mar 5
Waxing Crescent
Mar 8
First Quarter
Mar 16
Full
Mar 23
Last Quarter
Mar 30
New

Hourly Weather History & Observations

Time (EST) Temp. Windchill Dew Point Humidity Pressure Visibility Wind Dir Wind Speed Gust Speed Precip Events Conditions
12:15 AM 15.3 °F - 14.7 °F 98% 30.24 in 5.0 mi Calm Calm - N/A Snow Light Snow
12:35 AM 14.9 °F - 14.5 °F 98% 30.23 in 3.0 mi Calm Calm - N/A Snow Light Snow
12:55 AM 15.3 °F - 14.5 °F 97% 30.24 in 5.0 mi Calm Calm - N/A Snow Light Snow
1:15 AM 15.4 °F - 14.7 °F 97% 30.25 in 2.0 mi Calm Calm - N/A Snow Light Snow
1:35 AM 15.4 °F - 14.7 °F 97% 30.25 in 2.0 mi Calm Calm - N/A Snow Light Snow
1:55 AM 15.3 °F - 14.5 °F 97% 30.25 in 2.0 mi Calm Calm - N/A Snow Light Snow
2:15 AM 15.1 °F - 14.5 °F 98% 30.25 in 1.8 mi Calm Calm - N/A Snow Light Snow
2:35 AM 14.9 °F - 14.4 °F 98% 30.24 in 2.5 mi Calm Calm - N/A Snow Light Snow
2:55 AM 14.7 °F - 14.0 °F 97% 30.24 in 4.0 mi Calm Calm - N/A Snow Light Snow
3:15 AM 14.7 °F - 14.0 °F 97% 30.24 in 2.5 mi Calm Calm - N/A Snow Light Snow
3:35 AM 14.5 °F - 13.8 °F 97% 30.24 in 3.0 mi Calm Calm - N/A Snow Light Snow
3:55 AM 14.5 °F - 13.8 °F 97% 30.24 in 2.5 mi Calm Calm - N/A Snow Light Snow
4:15 AM 14.2 °F - 13.6 °F 98% 30.24 in 3.0 mi Calm Calm - N/A Snow Light Snow
4:35 AM 14.0 °F - 13.1 °F 96% 30.24 in 3.0 mi Calm Calm - N/A Snow Light Snow
4:55 AM 14.0 °F - 13.1 °F 96% 30.24 in 2.5 mi Calm Calm - N/A Snow Light Snow
5:15 AM 14.0 °F - 13.1 °F 96% 30.25 in 3.0 mi Calm Calm - N/A Snow Light Snow
5:35 AM 13.8 °F - 13.1 °F 97% 30.25 in 5.0 mi Calm Calm - N/A Snow Light Snow
5:50 AM 13.8 °F - 13.1 °F 97% 30.25 in 4.0 mi Calm Calm - N/A Snow Light Snow
6:15 AM 13.6 °F 7.7 °F 12.9 °F 97% 30.25 in 5.0 mi WNW 3.5 mph - N/A Snow Light Snow
6:35 AM 13.6 °F 6.0 °F 12.9 °F 97% 30.25 in 3.0 mi WNW 4.6 mph - N/A Snow Light Snow
6:55 AM 13.5 °F 5.8 °F 12.7 °F 97% 30.26 in 3.0 mi WNW 4.6 mph - N/A Snow Light Snow
7:15 AM 13.6 °F - 12.7 °F 96% 30.27 in 5.0 mi Calm Calm - N/A Snow Light Snow
7:35 AM 13.8 °F 8.0 °F 12.7 °F 95% 30.27 in 5.0 mi WNW 3.5 mph - N/A Snow Light Snow
7:55 AM 14.2 °F - 12.9 °F 95% 30.28 in 5.0 mi Calm Calm - N/A Snow Light Snow
8:15 AM 14.5 °F 8.8 °F 12.9 °F 93% 30.28 in 4.0 mi West 3.5 mph - N/A Snow Light Snow
8:35 AM 14.9 °F - 12.9 °F 92% 30.29 in 3.0 mi Calm Calm - N/A Snow Light Snow
8:55 AM 15.3 °F 6.6 °F 13.1 °F 91% 30.30 in 1.8 mi West 5.8 mph - N/A Snow Light Snow
9:15 AM 15.8 °F 6.1 °F 13.1 °F 89% 30.30 in 2.5 mi WNW 6.9 mph - N/A Snow Light Snow
9:35 AM 15.6 °F 4.9 °F 12.9 °F 89% 30.31 in 3.0 mi WNW 8.1 mph - N/A Snow Light Snow
9:55 AM 15.8 °F 6.1 °F 12.7 °F 88% 30.31 in 4.0 mi West 6.9 mph - N/A Snow Light Snow
10:15 AM 16.7 °F 7.2 °F 12.2 °F 82% 30.31 in 5.0 mi WNW 6.9 mph - N/A Snow Light Snow
10:35 AM 17.2 °F 6.8 °F 12.0 °F 80% 30.32 in 7.0 mi WNW 8.1 mph - N/A   Overcast
10:55 AM 17.6 °F 8.2 °F 11.8 °F 78% 30.31 in 7.0 mi WNW 6.9 mph - N/A   Overcast
11:15 AM 18.7 °F 7.8 °F 12.2 °F 76% 30.32 in 7.0 mi WNW 9.2 mph - N/A   Overcast
11:35 AM 18.5 °F 8.4 °F 11.7 °F 75% 30.32 in 7.0 mi WNW 8.1 mph - N/A Snow Light Snow
11:55 AM 18.5 °F 7.5 °F 11.5 °F 74% 30.32 in 5.0 mi West 9.2 mph - N/A Snow Light Snow
12:15 PM 18.7 °F 7.8 °F 11.3 °F 73% 30.31 in 10.0 mi West 9.2 mph 17.3 mph N/A   Mostly Cloudy
12:30 PM 18.7 °F 6.3 °F 10.9 °F 72% 30.31 in 10.0 mi West 11.5 mph - N/A   Mostly Cloudy
12:55 PM 18.5 °F 5.5 °F 10.4 °F 71% 30.31 in 10.0 mi WNW 12.7 mph 18.4 mph N/A   Overcast
1:15 PM 19.0 °F 8.2 °F 10.4 °F 69% 30.32 in 10.0 mi WNW 9.2 mph - N/A   Overcast
1:35 PM 19.4 °F 7.2 °F 9.7 °F 66% 30.32 in 10.0 mi West 11.5 mph - N/A   Overcast
1:55 PM 20.1 °F 9.5 °F 9.9 °F 64% 30.32 in 10.0 mi West 9.2 mph - N/A   Overcast
2:15 PM 19.9 °F 7.3 °F 8.4 °F 61% 30.32 in 10.0 mi West 12.7 mph - N/A   Mostly Cloudy
2:35 PM 19.4 °F 7.2 °F 7.7 °F 60% 30.34 in 10.0 mi West 11.5 mph 16.1 mph N/A   Scattered Clouds
2:55 PM 19.0 °F 7.5 °F 7.5 °F 61% 30.35 in 10.0 mi WNW 10.4 mph 17.3 mph N/A   Scattered Clouds
3:15 PM 18.5 °F 5.5 °F 7.2 °F 61% 30.35 in 10.0 mi West 12.7 mph 17.3 mph N/A   Clear
3:35 PM 17.8 °F 5.2 °F 5.7 °F 59% 30.37 in 10.0 mi West 11.5 mph 20.7 mph N/A   Scattered Clouds
3:55 PM 17.2 °F 5.2 °F 5.9 °F 61% 30.38 in 10.0 mi WNW 10.4 mph 17.3 mph N/A   Mostly Cloudy
4:15 PM 16.3 °F 2.7 °F 4.8 °F 61% 30.39 in 10.0 mi WNW 12.7 mph 17.3 mph N/A   Mostly Cloudy
4:35 PM 15.6 °F 3.2 °F 4.8 °F 62% 30.40 in 10.0 mi WNW 10.4 mph 17.3 mph N/A   Scattered Clouds
4:55 PM 14.7 °F 3.8 °F 4.1 °F 63% 30.41 in 10.0 mi WNW 8.1 mph - N/A   Clear
5:15 PM 13.8 °F 1.0 °F 3.7 °F 64% 30.42 in 10.0 mi West 10.4 mph 16.1 mph N/A   Clear
5:35 PM 12.9 °F -0.2 °F 3.7 °F 67% 30.44 in 10.0 mi WNW 10.4 mph - N/A   Clear
5:55 PM 12.2 °F 0.7 °F 3.2 °F 67% 30.45 in 10.0 mi WNW 8.1 mph - N/A   Clear
6:15 PM 11.3 °F -1.3 °F 3.0 °F 69% 30.46 in 10.0 mi NW 9.2 mph 18.4 mph N/A   Clear
6:35 PM 10.8 °F -1.1 °F 2.1 °F 68% 30.47 in 10.0 mi NW 8.1 mph - N/A   Clear
6:55 PM 10.2 °F 0.6 °F 1.6 °F 68% 30.48 in 10.0 mi NW 5.8 mph - N/A   Clear
7:15 PM 8.6 °F 2.0 °F 0.1 °F 68% 30.50 in 10.0 mi WNW 3.5 mph - N/A   Clear
7:35 PM 8.8 °F 0.4 °F 0.3 °F 69% 30.50 in 10.0 mi West 4.6 mph - N/A   Clear
7:55 PM 7.9 °F -0.7 °F -0.2 °F 70% 30.50 in 10.0 mi WNW 4.6 mph - N/A   Clear
8:15 PM 7.3 °F - 0.3 °F 73% 30.51 in 10.0 mi Calm Calm - N/A   Clear
8:35 PM 5.7 °F - -0.9 °F 74% 30.52 in 10.0 mi Calm Calm - N/A   Clear
8:55 PM 6.6 °F - -0.0 °F 74% 30.52 in 10.0 mi Calm Calm - N/A   Clear
9:15 PM 5.0 °F - -0.4 °F 78% 30.53 in 10.0 mi Calm Calm - N/A   Clear
9:35 PM 4.1 °F - -0.9 °F 80% 30.54 in 10.0 mi Calm Calm - N/A   Clear
9:55 PM 3.7 °F - -0.9 °F 81% 30.54 in 10.0 mi Calm Calm - N/A   Clear
10:15 PM 3.2 °F - -1.1 °F 82% 30.55 in 10.0 mi Calm Calm - N/A   Clear
10:35 PM 1.9 °F - -2.6 °F 81% 30.55 in 10.0 mi Calm Calm - N/A   Clear
10:55 PM 1.8 °F - -2.4 °F 83% 30.55 in 10.0 mi Calm Calm - N/A   Clear
11:15 PM 1.4 °F - -1.5 °F 88% 30.56 in 10.0 mi Calm Calm - N/A   Clear
11:35 PM 0.7 °F - -3.3 °F 83% 30.56 in 10.0 mi Calm Calm - N/A   Clear
11:55 PM 1.0 °F - -2.4 °F 86% 30.56 in 10.0 mi Calm Calm - N/A   Clear